Dewpoint
57 57 57 57 57 57 57 57 58 58 58 59 59 59 59 59 58 59 59 59 58 59 59 59 60 59 60 60 60 60 58 40 38 37 34 29 42 59 63 65 65 64 56 33 31 29 28 29 31 31 33 33 35 35 37 41 39 37 32 28 25 26 25 28 23 23 24 23 20 23 21 22 21 22 24 24 22 24 23 23 24 25 26 27 26 37 37 41
57 57 57 57 57 57 58 57 58 58 58 58 59 59 59 59 59 59 59 59 59 58 59 60 59 60 60 60 60 60 50 42 38 39 32 46 61 63 65 65 64 60 46 31 29 27 27 27 31 31 31 30 38 34 38 38 39 33 29 26 23 26 25 28 24 24 20 20 20 22 21 22 22 22 23 22 21 21 20 20 24 22 23 24 27 37 38 41
56 56 56 56 57 57 57 58 57 58 58 58 58 59 59 58 58 59 59 59 58 58 58 59 60 59 60 61 60 59 49 40 25 24 27 60 65 65 66 65 62 58 34 31 30 26 24 24 29 30 31 28 30 32 36 35 38 34 30 26 24 26 25 27 25 23 22 22 21 22 23 21 22 22 24 24 21 21 20 20 22 21 21 22 23 35 37 40
56 56 56 56 57 57 57 58 57 57 58 58 58 58 58 58 58 58 58 58 58 58 59 59 60 60 59 60 60 54 35 23 17 19 31 56 58 65 67 64 60 48 31 29 28 27 30 30 30 29 31 29 29 37 34 34 34 34 30 27 26 27 25 24 26 26 24 24 24 24 23 23 23 21 22 21 22 22 21 22 21 21 21 21 22 32 36 38
56 56 56 56 57 57 57 57 57 57 58 58 58 58 58 58 58 58 58 58 58 58 59 59 59 60 60 60 59 43 27 11 16 24 25 62 66 66 66 64 57 36 31 28 28 28 28 28 28 30 29 25 30 30 33 34 35 33 29 29 28 27 27 25 25 26 26 27 25 25 23 24 23 22 21 21 21 22 22 22 22 22 22 21 21 26 36 36
57 56 56 56 56 57 57 57 57 57 57 57 57 58 58 58 58 58 58 58 58 58 59 59 59 59 60 60 48 36 24 7 27 33 64 66 67 67 65 59 52 31 30 30 28 28 26 28 26 28 25 25 26 23 24 33 34 27 28 31 31 28 27 28 26 26 26 24 25 24 25 24 24 23 21 21 21 23 24 24 23 21 22 21 23 31 34 35
57 57 56 56 56 57 57 57 57 57 57 57 57 58 58 58 58 58 58 58 58 58 58 59 59 59 60 57 41 32 23 21 28 35 66 66 66 66 61 58 50 33 31 30 29 30 30 26 26 28 25 26 22 25 25 30 34 30 26 28 28 31 29 29 28 25 26 25 25 24 27 26 26 25 24 21 22 23 24 24 23 22 22 22 22 28 27 31
58 58 58 57 57 57 57 57 57 57 57 57 57 58 58 58 58 58 58 58 58 58 58 58 59 59 59 37 35 28 29 25 24 48 65 64 61 59 52 41 38 36 30 29 29 29 27 25 24 27 24 22 21 25 27 28 32 31 29 29 28 30 30 30 30 29 29 28 28 28 27 26 26 25 24 22 22 23 23 23 22 21 21 21 21 21 25 28
58 58 57 57 58 57 57 57 57 57 57 57 58 58 58 58 58 58 58 58 58 58 58 58 58 59 57 34 28 24 22 35 31 44 60 56 52 46 43 40 39 34 33 32 31 29 28 27 28 24 18 23 24 23 24 22 19 29 28 30 29 27 27 27 26 26 26 26 27 25 24 24 23 25 21 21 22 22 23 22 22 22 22 21 21 21 21 24
58 57 57 57 57 57 57 57 57 57 57 58 58 58 58 58 58 58 58 58 58 58 58 58 58 58 42 32 30 22 27 35 44 54 53 51 47 43 38 42 36 33 32 32 30 30 27 27 26 28 24 24 24 22 25 21 18 28 29 29 27 26 25 26 25 24 24 24 23 22 21 21 22 22 18 21 21 22 22 22 22 22 21 21 21 22 21 22
57 57 57 57 57 57 57 57 57 57 57 58 58 58 58 58 58 58 58 58 58 57 58 58 57 52 39 31 27 21 30 39 48 52 49 47 42 39 37 40 36 32 30 33 30 29 30 28 32 27 30 20 23 23 23 23 23 24 25 21 20 20 20 21 21 21 22 19 21 21 20 21 21 24 19 18 21 22 21 20 19 20 20 20 21 21 25 23
58 57 57 57 57 57 57 57 57 57 57 58 58 58 58 58 58 58 57 58 58 57 58 57 59 52 33 30 26 23 38 39 51 49 46 42 39 39 37 41 34 34 30 29 31 36 30 29 28 20 16 23 19 20 21 25 23 22 21 19 19 19 17 18 18 17 21 18 21 21 20 19 21 18 18 19 21 20 20 19 19 19 19 21 21 21 21 22
58 58 58 58 57 57 57 57 57 57 58 58 58 58 58 58 58 57 57 57 58 57 58 57 55 54 31 20 23 35 40 48 50 46 41 41 40 41 42 43 37 32 29 27 28 33 33 30 26 22 23 19 18 16 20 24 23 21 20 19 18 17 15 15 18 20 19 18 21 16 12 16 17 17 17 18 20 20 19 19 18 19 18 19 20 20 22 23
58 58 58 58 57 57 57 57 58 58 58 58 58 58 58 58 57 57 57 57 57 57 57 56 51 42 24 19 24 35 41 48 47 45 43 43 34 38 40 39 39 37 36 24 35 35 32 31 28 25 29 22 20 27 22 21 21 18 19 19 19 17 14 16 18 20 18 21 21 15 15 13 13 14 15 21 17 17 15 14 14 16 16 16 20 21 22 22
58 58 58 58 57 57 57 57 58 58 58 58 58 58 57 57 57 57 57 57 56 57 57 55 45 31 26 25 30 38 52 39 36 40 44 35 34 35 37 37 36 35 35 38 39 37 33 32 27 23 20 25 26 22 19 20 20 23 15 17 21 16 18 17 18 18 15 17 22 17 18 14 13 13 14 16 19 17 16 15 15 16 16 16 19 19 20 20
58 58 58 57 57 57 57 57 57 58 58 58 58 57 57 57 57 57 56 57 57 58 56 44 41 30 25 28 31 53 37 34 32 37 40 40 36 32 37 35 34 30 31 31 35 31 29 30 25 24 24 23 21 21 21 19 21 22 15 17 16 21 17 15 14 18 19 18 22 16 13 14 12 15 17 18 17 18 17 17 17 16 17 18 17 18 18 20
58 58 57 57 57 57 57 57 57 58 58 58 58 57 57 56 56 56 57 58 56 55 47 37 43 38 27 34 32 29 28 35 39 39 39 39 37 34 32 33 31 29 29 31 32 30 27 27 28 25 25 21 22 23 19 21 18 19 21 17 21 16 15 13 15 14 24 17 16 19 17 15 13 14 15 17 17 17 16 16 17 17 17 17 19 18 18 19
59 58 58 58 58 58 58 58 58 58 58 58 58 56 53 55 56 53 53 54 53 51 48 47 40 29 26 29 26 28 38 32 38 38 38 37 34 32 30 28 28 27 26 27 29 25 27 26 28 25 25 24 20 22 20 15 16 16 16 18 15 17 17 14 15 13 15 19 15 16 17 16 16 17 17 18 18 18 17 17 17 16 17 18 18 18 18 19
59 58 58 58 58 58 58 58 58 58 58 58 55 52 53 53 44 47 45 42 34 29 26 34 27 24 24 25 28 25 37 39 38 37 35 34 35 31 31 29 29 26 25 25 25 24 26 28 28 24 22 21 20 19 17 17 16 14 15 15 14 13 12 12 15 16 16 15 13 14 14 13 13 14 15 15 16 16 16 16 16 16 16 16 17 18 18 20
59 58 58 59 58 58 58 58 58 58 58 54 46 42 39 35 33 31 35 37 37 28 25 28 32 29 30 28 29 32 41 37 34 35 37 37 29 28 28 27 30 26 24 26 28 24 28 24 22 22 21 20 20 20 19 18 19 17 20 19 14 15 15 15 14 14 17 15 14 14 14 14 15 15 15 16 16 17 16 16 16 17 17 18 18 18 20 20
58 58 58 58 58 58 58 58 58 58 57 46 42 33 29 29 30 31 34 35 35 36 35 35 33 31 28 31 36 32 29 28 34 35 36 38 30 29 28 26 27 27 25 28 27 25 25 24 23 22 20 19 19 20 20 19 19 18 19 19 17 21 15 16 15 16 18 17 17 15 16 16 16 17 17 18 18 17 17 17 17 17 17 18 19 20 21 20
58 58 58 58 58 58 58 58 58 57 53 43 41 34 33 32 36 35 35 34 36 35 35 35 35 34 35 35 35 34 33 30 28 35 37 35 29 28 28 26 25 25 27 26 25 24 23 22 22 22 22 20 18 18 19 19 20 20 18 19 19 18 19 18 18 18 20 20 18 18 17 17 17 18 18 18 18 18 18 19 18 18 19 19 20 21 21 24
58 58 58 58 58 58 59 58 58 53 45 44 41 40 39 41 41 41 40 36 36 37 35 34 32 33 32 33 34 35 31 30 27 33 34 34 29 28 27 24 25 25 26 24 24 24 23 25 22 22 23 21 20 19 18 20 22 19 19 19 17 20 18 16 18 20 19 18 19 19 18 19 19 19 19 19 19 19 21 20 21 21 20 20 19 21 25 25
58 58 58 58 58 58 58 58 56 50 46 42 42 42 42 41 41 42 37 35 35 37 36 37 34 32 32 32 33 33 31 30 30 29 34 30 28 30 26 25 24 24 23 23 23 23 22 24 24 23 21 21 19 20 20 19 18 22 21 21 19 20 19 19 17 20 20 21 24 20 19 18 20 19 20 21 22 21 21 21 22 23 25 25 28 27 30 25
58 58 58 58 58 58 58 57 47 46 44 44 43 43 41 41 42 41 38 35 31 32 35 31 35 34 32 36 36 31 32 31 29 30 35 30 27 27 26 26 24 23 24 23 23 24 23 24 25 22 23 21 22 19 21 23 18 20 24 21 20 20 19 20 22 20 19 19 23 20 16 19 20 24 22 22 22 21 21 21 20 20 24 28 23 24 29 32
58 58 58 58 58 58 58 50 46 46 46 43 43 43 41 41 40 38 34 30 32 34 32 29 35 28 35 29 34 33 30 28 30 31 37 32 34 27 25 25 25 25 24 24 23 24 23 24 25 23 23 24 23 21 23 23 19 20 20 23 22 21 22 22 21 21 18 16 21 23 16 15 19 19 20 20 23 19 19 21 20 20 21 22 22 25 24 25
58 58 58 58 58 58 53 46 48 48 47 45 44 44 43 43 42 40 29 28 28 30 29 32 29 26 31 27 31 28 23 26 26 31 31 35 29 30 24 24 23 22 24 24 24 22 23 23 23 25 24 24 23 20 23 22 22 20 24 24 24 23 22 23 23 22 20 24 25 23 21 17 17 19 19 20 21 18 18 18 20 19 19 20 21 22 24 26
56 58 58 58 58 57 54 50 52 50 51 48 47 45 45 44 43 41 31 29 27 27 25 25 28 32 31 30 29 22 23 23 20 25 30 31 31 28 24 22 23 22 21 24 21 24 23 23 24 23 24 23 22 23 25 24 21 22 26 25 23 23 23 23 22 21 21 21 20 23 23 17 18 21 20 20 20 19 19 18 19 20 21 21 23 24 25 26
54 56 57 57 58 58 55 54 53 51 51 48 47 46 45 41 35 35 31 24 30 25 30 27 33 27 28 29 26 23 23 24 17 21 30 30 30 26 24 24 23 22 21 24 21 23 21 23 24 25 24 22 24 23 25 26 22 25 26 27 26 26 25 24 22 21 21 19 19 21 22 14 15 18 18 21 20 19 20 19 19 21 22 24 25 26 26 25
53 53 55 57 57 56 54 54 53 52 48 47 46 45 43 41 36 32 30 24 30 28 27 28 26 25 27 25 25 25 25 24 25 26 27 28 27 26 25 25 22 22 24 24 23 24 24 32 29 24 22 23 24 25 26 25 24 27 27 26 26 24 23 22 21 21 18 15 19 20 21 17 14 20 19 19 22 19 19 19 18 19 23 22 25 25 27 24
52 52 54 57 55 55 54 52 53 48 48 46 45 45 43 44 39 33 29 31 31 33 25 25 24 28 24 24 23 24 25 25 24 26 24 26 26 26 24 23 26 25 23 23 23 25 24 24 24 27 29 26 26 26 27 27 27 26 25 22 22 21 18 16 13 17 14 16 18 20 21 19 14 15 20 20 19 20 19 18 18 18 18 20 23 23 23 23
52 52 54 55 56 56 54 53 52 48 47 47 50 47 46 37 37 32 30 37 30 32 28 26 26 26 25 26 25 25 24 24 24 24 22 24 25 25 24 23 23 16 21 19 20 24 21 24 26 25 32 25 24 22 23 27 27 25 24 22 16 16 16 11 13 12 13 16 19 21 20 18 17 15 19 19 19 20 19 19 19 19 19 21 22 23 24 28
52 52 54 55 55 54 55 53 51 50 49 50 49 46 40 34 29 34 34 32 34 29 26 27 24 26 26 24 24 26 26 23 24 24 25 25 24 26 27 24 27 22 19 22 19 20 21 23 23 25 24 27 26 20 21 20 26 24 21 22 18 12 10 11 9 5 10 15 16 20 21 17 18 19 21 19 19 19 20 20 22 21 21 22 23 24 25 28
50 51 51 53 55 56 54 51 51 51 51 50 47 43 38 32 31 39 34 33 34 31 26 24 26 25 25 24 25 26 23 26 25 23 25 24 23 22 24 24 24 23 23 22 17 19 18 23 25 23 22 27 25 22 23 22 25 23 25 22 21 18 13 10 11 13 15 18 15 16 16 17 14 19 20 21 20 21 21 21 26 25 25 25 26 26 25 26
49 51 53 54 54 56 52 52 52 52 51 49 44 41 34 33 34 33 32 31 32 30 32 29 28 28 29 26 26 27 27 27 26 24 24 24 22 23 23 23 25 25 25 21 25 20 21 23 25 26 27 26 25 27 28 25 23 25 26 25 18 20 22 15 22 18 18 14 13 12 19 17 16 21 21 21 21 20 21 22 23 21 22 24 23 23 25 25
48 46 51 51 53 55 53 53 52 52 51 47 40 35 35 35 31 32 33 35 30 31 30 31 28 27 28 26 26 26 28 27 28 24 25 25 25 24 26 26 25 24 22 23 24 21 21 20 25 26 27 26 25 27 26 24 17 23 24 20 24 27 22 21 21 21 20 17 17 17 16 20 21 20 20 22 21 18 20 18 18 20 22 23 24 26 25 26
43 46 44 50 51 54 53 52 52 52 51 46 39 34 38 35 37 32 39 31 30 29 29 30 30 29 27 26 25 26 27 27 26 26 25 26 25 26 25 26 27 26 24 26 24 27 24 25 26 25 23 26 27 27 27 28 26 24 20 23 27 29 27 23 19 20 18 17 17 18 19 17 18 20 23 21 21 21 22 22 22 23 22 20 24 25 25 25
42 44 46 47 50 53 53 52 52 51 48 43 37 40 39 38 38 38 34 32 32 34 31 30 33 30 30 28 30 25 27 27 29 27 26 27 26 28 26 25 27 25 25 28 23 28 26 20 24 25 25 27 29 27 27 27 28 24 26 29 22 21 19 23 20 17 17 17 20 19 20 21 22 21 21 21 20 20 22 24 20 19 19 22 21 24 26 27
42 44 39 43 48 53 53 52 52 49 44 39 38 38 40 40 37 36 34 33 35 36 34 35 34 36 34 32 32 31 28 28 31 27 26 31 25 30 27 29 30 26 26 28 24 26 31 23 26 29 29 31 31 29 26 25 29 29 28 25 29 24 25 21 25 24 25 22 22 22 24 22 26 22 22 21 21 23 25 26 24 22 21 22 24 26 26 25
40 41 38 45 52 54 53 52 49 46 42 36 38 38 39 37 38 38 37 35 36 36 36 34 34 35 34 35 33 33 33 32 32 32 32 33 34 39 36 37 33 36 33 35 30 33 31 33 26 32 32 33 29 29 28 28 28 27 24 24 26 26 30 29 27 27 25 22 21 21 20 23 27 26 24 24 25 27 26 25 24 24 25 25 25 25 25 24
43 40 38 51 52 53 52 50 44 41 39 40 41 40 39 38 36 37 38 38 37 39 36 35 34 34 34 33 34 34 33 33 33 33 34 34 34 32 35 38 39 38 34 32 33 32 29 32 29 31 31 30 31 33 31 31 29 28 29 28 29 28 26 24 22 30 28 25 22 21 20 24 35 34 29 28 28 27 25 25 24 25 24 24 24 24 24 24
39 31 37 50 52 53 49 42 41 41 39 38 39 40 39 42 38 38 37 37 37 37 38 36 35 35 34 36 36 33 33 33 34 33 32 34 35 35 34 39 39 38 35 30 30 34 32 32 31 28 28 28 29 31 33 32 31 30 28 27 29 29 30 26 22 23 28 27 28 26 24 24 29 31 29 28 27 25 25 26 25 24 24 23 24 23 23 23
37 34 41 45 52 52 47 40 42 40 39 40 41 40 39 37 35 35 35 35 36 37 36 37 36 36 35 36 34 33 34 33 33 33 31 31 33 35 34 35 34 34 33 31 33 31 33 26 27 29 30 30 30 31 30 30 31 29 29 29 27 26 26 26 26 26 25 25 24 25 24 26 34 31 29 29 27 25 24 24 23 23 22 23 23 23 23 23
35 34 37 43 48 48 44 35 36 38 40 41 41 40 39 38 37 36 35 35 36 35 36 34 34 36 35 35 33 33 33 30 32 34 32 31 31 32 32 33 34 33 32 32 30 32 27 27 28 26 25 24 23 24 26 27 28 27 26 28 28 29 30 30 28 26 25 25 26 24 20 24 32 34 29 30 28 24 23 22 22 22 22 23 23 23 23 23
34 34 37 39 44 45 38 40 37 38 39 39 40 39 40 40 39 40 38 37 37 36 35 34 36 33 33 32 32 33 33 34 30 33 32 30 31 30 30 31 32 31 34 33 35 33 29 28 26 22 20 18 17 15 14 20 21 26 27 28 29 29 28 29 26 27 25 26 27 25 24 25 26 27 28 31 26 24 23 22 21 22 22 22 23 23 23 23
26 22 26 34 40 41 40 41 39 39 37 37 37 37 38 36 36 36 38 38 39 35 37 35 34 32 33 32 32 33 33 35 34 31 30 30 28 30 28 29 30 30 36 35 32 29 27 30 30 29 26 24 23 24 29 30 29 28 28 29 29 30 30 30 29 26 23 26 26 27 28 28 29 33 34 30 25 24 22 21 19 20 21 22 23 23 24 23
32 27 26 15 33 35 35 38 36 38 35 38 34 37 36 37 37 36 38 35 34 37 34 35 34 34 32 33 32 32 33 32 32 33 33 33 30 28 29 29 29 32 33 32 31 27 27 28 30 30 29 30 31 30 31 30 28 28 28 27 29 27 27 27 26 24 28 26 21 26 29 29 29 32 32 29 25 25 23 21 21 20 21 20 20 21 23 21
23 24 31 33 29 23 30 32 35 34 35 36 33 36 34 32 32 32 33 35 35 33 34 34 36 36 34 32 32 30 32 30 29 29 29 28 28 27 28 28 29 29 29 26 28 27 24 23 26 27 26 28 30 28 27 26 27 27 27 26 25 26 26 24 24 25 26 23 21 23 24 24 24 26 23 22 20 24 21 18 18 19 20 21 20 20 20 20
29 27 26 30 26 29 30 31 31 32 31 33 34 34 33 33 33 33 32 33 33 33 35 32 30 31 33 32 33 31 32 27 23 27 27 25 22 25 24 26 29 25 23 22 23 27 28 25 27 25 26 26 25 25 25 24 23 23 24 24 25 26 25 25 25 25 25 23 23 24 24 24 25 24 22 20 20 19 19 19 19 20 20 22 21 19 21 21
24 26 25 30 30 28 28 29 29 28 28 31 30 32 33 33 32 32 32 32 30 31 34 31 31 29 28 28 30 29 29 29 29 28 29 26 26 30 26 28 28 25 24 21 22 25 30 22 27 24 22 22 23 23 23 23 23 22 22 23 23 23 23 23 23 23 24 24 25 25 24 23 23 22 21 22 21 21 21 21 18 20 21 21 21 19 20 21
31 34 34 28 25 25 27 26 27 28 28 29 28 28 29 29 29 30 29 32 31 30 29 29 29 28 28 28 28 28 31 29 29 28 28 28 24 28 25 24 26 23 24 22 26 24 24 21 23 20 18 18 21 21 21 21 21 21 20 20 19 19 17 17 17 19 19 18 18 20 21 22 21 23 22 21 22 21 21 17 21 21 22 22 21 19 20 20
30 28 31 28 21 27 26 27 24 25 22 26 28 29 29 27 26 29 29 31 28 28 27 27 28 27 27 30 28 30 29 29 29 29 30 27 28 26 26 26 25 24 24 21 23 20 21 18 17 17 15 15 18 18 14 13 12 11 11 12 14 15 15 16 17 18 21 27 23 21 22 20 21 24 21 20 22 19 21 20 21 23 23 23 21 19 20 21